^^
Grace C. Lehan Memorial Weather Station Historical Data
Daily Summary for August 12, 2021 Units:  Metric    English   Both
Daily Weekly Monthly Yearly
  High: Low: Average:
Temperature: 9.3 °C 8.5 °C 9 °C
Dew Point: 1.1 °C 0.8 °C 0.9 °C
Humidity: 59.3% 55% 57%
Wind Speed: 6.3km/h 0km/h 2.3km/h
Wind Gust: 24.1km/h - -
Wind- - WNW
Pressure: 1017.2 hPa 1016.5 hPa -
Precipitation: 0 mm    
 
 
Tabular Data for August 12, 2021
Time Temperature Dew Point Pressure Wind Wind Speed Wind Gust Humidity Rainfall Rate (Hourly) solar
00:04 9.3 °C 0.8 °C 1016.5 hPa NW 1 km/h 4.8 km/h 55% 0 mm 0 W/m2
00:09 9.3 °C 0.8 °C 1016.5 hPa WNW 2.9 km/h 11.3 km/h 55% 0 mm 0 W/m2
00:14 9.3 °C 0.8 °C 1016.8 hPa WNW 0.6 km/h 11.3 km/h 55% 0 mm 0 W/m2
00:19 9.3 °C 0.8 °C 1016.8 hPa WNW 1.6 km/h 14.5 km/h 55% 0 mm 0 W/m2
00:24 9.3 °C 0.8 °C 1016.8 hPa WNW 2.4 km/h 14.5 km/h 55% 0 mm 0 W/m2
00:29 9.3 °C 0.8 °C 1016.8 hPa WNW 3.7 km/h 16.1 km/h 55% 0 mm 0 W/m2
00:34 9.3 °C 0.8 °C 1017.2 hPa WNW 1.9 km/h 16.1 km/h 55% 0 mm 0 W/m2
00:39 9.3 °C 0.8 °C 1017.2 hPa WNW 5 km/h 24.1 km/h 55% 0 mm 0 W/m2
00:44 9.3 °C 0.8 °C 1017.2 hPa WNW 2.7 km/h 24.1 km/h 55% 0 mm 0 W/m2
00:49 9.3 °C 0.8 °C 1016.8 hPa WNW 2.9 km/h 24.1 km/h 55.2% 0 mm 0 W/m2
00:54 9.3 °C 0.8 °C 1016.8 hPa WNW 3.2 km/h 24.1 km/h 55.3% 0 mm 0 W/m2
00:59 9.3 °C 0.8 °C 1016.8 hPa WNW 6.3 km/h 24.1 km/h 55.5% 0 mm 0 W/m2
01:04 9.3 °C 0.8 °C 1016.8 hPa West 2.4 km/h 24.1 km/h 55.5% 0 mm 0 W/m2
01:09 9.2 °C 0.9 °C 1016.8 hPa West 5.3 km/h 17.7 km/h 56% 0 mm 0 W/m2
01:14 9.2 °C 0.9 °C 1016.8 hPa West 2.7 km/h 17.7 km/h 56% 0 mm 0 W/m2
01:19 9.2 °C 0.9 °C 1016.8 hPa WNW 2.3 km/h 17.7 km/h 56.5% 0 mm 0 W/m2
01:24 9.1 °C 0.8 °C 1016.8 hPa WSW 1.4 km/h 17.7 km/h 56% 0 mm 0 W/m2
01:29 9.1 °C 0.8 °C 1016.8 hPa WNW 0.3 km/h 17.7 km/h 56.4% 0 mm 0 W/m2
01:34 9 °C 0.9 °C 1016.8 hPa NW 1.3 km/h 17.7 km/h 57% 0 mm 0 W/m2
01:39 8.9 °C 0.8 °C 1016.8 hPa WNW 0.3 km/h 8 km/h 56.8% 0 mm 0 W/m2
01:44 8.9 °C 0.9 °C 1016.8 hPa Calm   8 km/h 57.4% 0 mm 0 W/m2
01:49 8.8 °C 0.9 °C 1016.8 hPa WNW 0.6 km/h 8 km/h 57.7% 0 mm 0 W/m2
01:54 8.7 °C 0.9 °C 1016.8 hPa Calm   8 km/h 58% 0 mm 0 W/m2
01:59 8.7 °C 0.9 °C 1016.5 hPa West 3.7 km/h 16.1 km/h 58% 0 mm 0 W/m2
02:04 8.6 °C 1 °C 1016.5 hPa WNW 4.2 km/h 16.1 km/h 58.9% 0 mm 0 W/m2
02:09 8.6 °C 1.1 °C 1016.8 hPa WNW 1.4 km/h 16.1 km/h 59% 0 mm 0 W/m2
02:14 8.6 °C 1.1 °C 1016.5 hPa WNW 1.4 km/h 16.1 km/h 59.3% 0 mm 0 W/m2
02:19 8.5 °C 0.9 °C 1016.5 hPa WNW 1.1 km/h 16.1 km/h 59% 0 mm 0 W/m2
02:24 8.5 °C 0.9 °C 1016.5 hPa WNW 3.9 km/h 19.3 km/h 59% 0 mm 0 W/m2
02:29 8.5 °C 0.9 °C 1016.5 hPa WNW 2.9 km/h 19.3 km/h 59% 0 mm 0 W/m2
02:34 8.6 °C 0.9 °C 1016.8 hPa WNW 1.6 km/h 19.3 km/h 58.7% 0 mm 0 W/m2
02:38 8.6 °C 0.9 °C 1016.8 hPa Calm   14.5 km/h 58.5% 0 mm 0 W/m2
Hartford County Weather
Compliments of Weather Underground - 4 mb